This demonstration page uses our WeatherBlox Daily Observations layout. Learn more.

38.88101, -77.10428

Hourly Observations for March 12, 2020

Temp ( °F °C ) Dew Point ( °F °C ) Humidity (%) Winds ( mph kmh ) Pressure ( in mb ) Visibility ( mi km ) Precip ( " mm )
12:52 am 00:52 Partly Cloudy 50 10 38 3.3 63 63 Calm 30.07 1018 10 16.0934 0.001 0.001
1:52 am 01:52 Cloudy 48 8.9 39 3.9 71 71 NE 3 6 30.06 1018 10 16.0934 0 0
2:52 am 02:52 Cloudy 49 9.4 39 3.9 69 69 NE 5 7 30.05 1018 10 16.0934 0 0
3:52 am 03:52 Cloudy 49 9.4 41 5 74 74 N 5 7 30.05 1018 10 16.0934 0 0
4:52 am 04:52 Cloudy 49 9.4 40 4.4 71 71 NE 7 11 30.05 1018 10 16.0934 0 0
5:52 am 05:52 Cloudy 48 8.9 41 5 77 77 NE 6 9 30.07 1018 10 16.0934 0 0
6:52 am 06:52 Cloudy 48 8.9 40 4.4 74 74 Calm 30.09 1019 10 16.0934 0 0
7:06 am 07:06 Cloudy 48 8.9 41 5 77 77 NE 3 6 30.09 1019 10 16.0934 0 0
7:43 am 07:43 Cloudy 49 9.4 41 5 74 74 NE 5 7 30.1 1019 10 16.0934 0 0
7:52 am 07:52 Cloudy 49 9.4 42 5.6 77 77 NE 6 9 30.1 1019 10 16.0934 0 0
8:52 am 08:52 Cloudy 50 10 42 5.6 74 74 NE 6 9 30.11 1020 10 16.0934 0 0
9:52 am 09:52 Cloudy 52 11.1 42 5.6 69 69 E 3 6 30.13 1020 10 16.0934 0 0
10:52 am 10:52 Mostly Cloudy 54 12.2 42 5.6 64 64 SE 6 9 30.12 1020 10 16.0934 0 0
11:52 am 11:52 Mostly Cloudy 57 13.9 43 6.1 60 60 ESE 9 15 30.11 1020 10 16.0934 0 0
12:52 pm 12:52 Mostly Cloudy 59 15 44 6.7 58 58 SSE 7 11 30.1 1019 10 16.0934 0 0
1:06 pm 13:06 Cloudy 60 15.6 45 7.2 58 58 SE 6 9 30.09 1019 10 16.0934 0 0
1:52 pm 13:52 Mostly Cloudy 63 17.2 46 7.8 54 54 VRB 3 6 30.07 1018 10 16.0934 0 0
2:02 pm 14:02 Mostly Cloudy 62 16.7 45 7.2 54 54 Calm 30.07 1018 10 16.0934 0 0
2:52 pm 14:52 Mostly Cloudy 63 17.2 45 7.2 52 52 ESE 7 11 30.04 1017 10 16.0934 0 0
3:52 pm 15:52 Mostly Cloudy 61 16.1 47 8.3 60 60 SE 8 13 30.03 1017 10 16.0934 0 0
3:59 pm 15:59 Cloudy 61 16.1 47 8.3 60 60 SE 8 13 30.03 1017 10 16.0934 0 0
4:52 pm 16:52 Cloudy 60 15.6 47 8.3 62 62 ESE 10 17 30.01 1016 10 16.0934 0 0
5:52 pm 17:52 Cloudy 59 15 46 7.8 62 62 ESE 9 15 30.02 1017 10 16.0934 0 0
6:52 pm 18:52 Cloudy 56 13.3 46 7.8 70 70 E 10 17 30.01 1016 10 16.0934 0 0
7:52 pm 19:52 Cloudy 56 13.3 46 7.8 70 70 E 6 9 30.04 1017 10 16.0934 0 0
8:52 pm 20:52 Cloudy 55 12.8 44 6.7 67 67 E 8 13 30.01 1016 10 16.0934 0 0
9:52 pm 21:52 Cloudy 54 12.2 44 6.7 69 69 ESE 7 11 30 1016 10 16.0934 0 0
10:52 pm 22:52 Cloudy 53 11.7 45 7.2 74 74 ESE 9 15 29.99 1016 10 16.0934 0 0
11:52 pm 23:52 Cloudy 52 11.1 47 8.3 83 83 E 6 9 29.98 1015 10 16.0934 0 0

Powered by AerisWeather